Location: Cheyres
(46.8153°N, 6.7877°E)
Time: 04:06:19
(UTC+00:00)

ERBS - Pass Details

Date: 11 May 2021
Orbit: 399 x 417 km, 57.0° (Epoch: 18 June)

Event Time Altitude Azimuth Distance (km) Brightness Sun altitude
Rises 21:37:07 0° 311° (NW) 2,353 7.3 -20.3°
Reaches altitude 10° 21:39:28 10° 326° (NW) 1,492 6.2 -20.5°
Maximum altitude 21:42:16 24° 23° (NNE) 903 4.3 -20.7°
Enters shadow 21:43:33 19° 58° (ENE) 1,058 4.3 -20.8°
